TimeMST,TemperatureF,Dew PointF,Humidity,Sea Level PressureIn,VisibilityMPH,Wind Direction,Wind SpeedMPH,Gust SpeedMPH,PrecipitationIn,Events,Conditions,WindDirDegrees,DateUTC
12:15 AM,23.0,23.0,100,30.06,10.0,North,16.1,-,N/A,,Overcast,350,2013-02-14 07:15:00
12:35 AM,23.0,23.0,100,30.06,10.0,North,16.1,-,N/A,,Overcast,350,2013-02-14 07:35:00
12:55 AM,23.0,23.0,100,30.06,4.0,North,15.0,-,N/A,,Overcast,360,2013-02-14 07:55:00
1:15 AM,23.0,23.0,100,30.07,0.5,North,16.1,-,N/A,Fog,Light Freezing Fog,360,2013-02-14 08:15:00
1:35 AM,23.0,23.0,100,30.07,0.2,North,17.3,-,N/A,Snow,Snow,350,2013-02-14 08:35:00
1:55 AM,23.0,23.0,100,30.06,0.2,North,18.4,-,N/A,Snow,Heavy Snow,360,2013-02-14 08:55:00
2:15 AM,23.0,21.2,93,30.07,0.2,North,18.4,-,N/A,Snow,Snow,350,2013-02-14 09:15:00
2:55 AM,23.0,21.2,93,30.07,0.2,North,17.3,-,N/A,Snow,Heavy Snow,350,2013-02-14 09:55:00
3:15 AM,23.0,21.2,93,30.07,0.2,North,16.1,-,N/A,Snow,Heavy Snow,350,2013-02-14 10:15:00
3:35 AM,23.0,21.2,93,30.08,0.2,North,17.3,-,N/A,Snow,Heavy Snow,350,2013-02-14 10:35:00
3:55 AM,23.0,21.2,93,30.08,-9999.0,North,15.0,-,N/A,,Overcast,350,2013-02-14 10:55:00
4:15 AM,23.0,21.2,93,30.08,0.2,North,15.0,-,N/A,Snow,Heavy Snow,350,2013-02-14 11:15:00
4:35 AM,23.0,21.2,93,30.08,0.2,NNW,15.0,-,N/A,Snow,Heavy Snow,340,2013-02-14 11:35:00
4:55 AM,23.0,21.2,93,30.10,-9999.0,NNW,17.3,-,N/A,,Overcast,340,2013-02-14 11:55:00
5:15 AM,19.4,15.8,86,30.09,-9999.0,NNW,36.8,42.6,N/A,,Overcast,330,2013-02-14 12:15:00
5:35 AM,17.6,15.8,93,30.12,0.2,NW,33.4,-,N/A,Snow,Snow,320,2013-02-14 12:35:00
5:55 AM,17.6,14.0,86,30.12,0.2,NW,36.8,-,N/A,Snow,Snow,320,2013-02-14 12:55:00
6:15 AM,15.8,14.0,93,30.12,0.2,North,-9999.0,-,N/A,Snow,Heavy Snow,0,2013-02-14 13:15:00
6:35 AM,15.8,14.0,93,30.11,0.2,North,-9999.0,-,N/A,Snow,Heavy Snow,0,2013-02-14 13:35:00
6:55 AM,15.8,14.0,93,30.12,-9999.0,WNW,39.1,-,N/A,,Overcast,300,2013-02-14 13:55:00
7:15 AM,14.0,12.2,93,30.12,0.2,WNW,39.1,-,N/A,Snow,Snow,300,2013-02-14 14:15:00
7:35 AM,14.0,12.2,93,30.13,-9999.0,NW,41.4,47.2,N/A,,Overcast,310,2013-02-14 14:35:00
7:55 AM,14.0,12.2,93,30.16,-9999.0,NW,40.3,-,N/A,,Overcast,310,2013-02-14 14:55:00
8:15 AM,14.0,12.2,93,30.17,-9999.0,NW,35.7,-,N/A,,Overcast,310,2013-02-14 15:15:00
8:35 AM,14.0,12.2,93,30.19,-9999.0,WNW,32.2,-,N/A,,Unknown,300,2013-02-14 15:35:00
8:55 AM,14.0,12.2,93,30.20,-9999.0,WNW,35.7,-,N/A,,Unknown,300,2013-02-14 15:55:00
9:15 AM,14.0,12.2,93,30.20,-9999.0,WNW,34.5,-,N/A,,Unknown,300,2013-02-14 16:15:00
9:35 AM,14.0,12.2,93,30.20,-9999.0,WNW,35.7,-,N/A,,Unknown,300,2013-02-14 16:35:00
9:55 AM,14.0,12.2,93,30.21,-9999.0,NW,34.5,-,N/A,,Unknown,310,2013-02-14 16:55:00
10:15 AM,14.0,12.2,93,30.22,-9999.0,NW,33.4,-,N/A,,Unknown,310,2013-02-14 17:15:00
10:35 AM,14.0,12.2,93,30.22,-9999.0,NW,33.4,-,N/A,,Overcast,310,2013-02-14 17:35:00
10:55 AM,14.0,12.2,93,30.23,-9999.0,NW,29.9,-,N/A,,Unknown,310,2013-02-14 17:55:00
11:15 AM,14.0,12.2,93,30.23,-9999.0,NW,29.9,-,N/A,,Unknown,320,2013-02-14 18:15:00
11:35 AM,14.0,12.2,93,30.23,-9999.0,NW,25.3,-,N/A,,Overcast,320,2013-02-14 18:35:00
11:55 AM,14.0,12.2,93,30.23,-9999.0,NW,23.0,-,N/A,,Overcast,320,2013-02-14 18:55:00
12:15 PM,14.0,12.2,93,30.24,-9999.0,NW,20.7,-,N/A,,Overcast,320,2013-02-14 19:15:00
12:35 PM,-9999,-9999,N/A,30.25,-9999.0,NW,17.3,-,N/A,,Overcast,320,2013-02-14 19:35:00
1:15 PM,14.0,12.2,93,30.24,-9999.0,NNW,16.1,-,N/A,,Overcast,330,2013-02-14 20:15:00
1:35 PM,14.0,12.2,93,30.24,-9999.0,NNW,15.0,-,N/A,,Unknown,330,2013-02-14 20:35:00
1:55 PM,14.0,12.2,93,30.23,-9999.0,NNW,13.8,-,N/A,,Unknown,330,2013-02-14 20:55:00
2:15 PM,14.0,12.2,93,30.23,-9999.0,NNW,9.2,-,N/A,,Unknown,330,2013-02-14 21:15:00
2:35 PM,15.8,14.0,93,30.23,-9999.0,NNW,16.1,-,N/A,,Unknown,330,2013-02-14 21:35:00
2:55 PM,14.0,12.2,93,30.23,-9999.0,NW,15.0,-,N/A,,Unknown,320,2013-02-14 21:55:00
3:15 PM,14.0,12.2,93,30.24,-9999.0,NNW,10.4,-,N/A,,Unknown,330,2013-02-14 22:15:00
3:35 PM,14.0,12.2,93,30.23,-9999.0,North,8.1,-,N/A,,Overcast,350,2013-02-14 22:35:00
4:15 PM,-9999,-9999,N/A,30.23,-9999.0,NNE,6.9,-,N/A,,Overcast,20,2013-02-14 23:15:00
4:35 PM,-9999,-9999,N/A,30.24,-9999.0,North,4.6,-,N/A,,Unknown,360,2013-02-14 23:35:00
4:55 PM,-9999,-9999,N/A,30.24,-9999.0,NNE,3.5,-,N/A,,Unknown,20,2013-02-14 23:55:00
5:15 PM,-9999,-9999,N/A,30.24,-9999.0,NNE,3.5,-,N/A,,Unknown,20,2013-02-15 00:15:00
5:35 PM,-9999,-9999,N/A,30.23,-9999.0,East,5.8,-,N/A,,Mostly Cloudy,80,2013-02-15 00:35:00
5:55 PM,-9999,-9999,N/A,30.23,-9999.0,East,8.1,-,N/A,,Overcast,100,2013-02-15 00:55:00
6:15 PM,15.8,14.0,93,30.24,-9999.0,ESE,8.1,-,N/A,,Overcast,120,2013-02-15 01:15:00
6:35 PM,17.6,14.0,86,30.23,-9999.0,SE,10.4,-,N/A,,Overcast,130,2013-02-15 01:35:00
6:55 PM,17.6,14.0,86,30.23,-9999.0,SE,11.5,-,N/A,,Overcast,130,2013-02-15 01:55:00
7:15 PM,17.6,14.0,86,30.24,-9999.0,SE,8.1,-,N/A,,Overcast,130,2013-02-15 02:15:00
7:35 PM,17.6,14.0,86,30.23,-9999.0,SE,9.2,-,N/A,,Overcast,130,2013-02-15 02:35:00
7:55 PM,15.8,14.0,93,30.23,-9999.0,SE,9.2,-,N/A,,Overcast,130,2013-02-15 02:55:00
8:15 PM,14.0,12.2,93,30.21,-9999.0,SE,13.8,-,N/A,,Overcast,140,2013-02-15 03:15:00
8:35 PM,14.0,12.2,93,30.21,-9999.0,SE,15.0,-,N/A,,Overcast,140,2013-02-15 03:35:00
8:55 PM,14.0,12.2,93,30.20,-9999.0,SE,16.1,-,N/A,,Overcast,140,2013-02-15 03:55:00
9:15 PM,14.0,12.2,93,30.20,-9999.0,SE,15.0,-,N/A,,Overcast,130,2013-02-15 04:15:00
9:35 PM,14.0,12.2,93,30.20,-9999.0,SE,13.8,-,N/A,,Unknown,140,2013-02-15 04:35:00
9:55 PM,14.0,12.2,93,30.21,-9999.0,SE,10.4,-,N/A,,Unknown,140,2013-02-15 04:55:00
10:15 PM,14.0,12.2,93,30.22,-9999.0,SE,6.9,-,N/A,,Unknown,140,2013-02-15 05:15:00
10:35 PM,14.0,12.2,93,30.21,-9999.0,SE,8.1,-,N/A,,Overcast,130,2013-02-15 05:35:00
10:55 PM,14.0,12.2,93,30.22,-9999.0,SE,6.9,-,N/A,,Unknown,140,2013-02-15 05:55:00
11:15 PM,14.0,12.2,93,30.22,-9999.0,SE,5.8,-,N/A,,Overcast,130,2013-02-15 06:15:00
11:35 PM,14.0,12.2,93,30.22,-9999.0,SE,6.9,-,N/A,,Overcast,130,2013-02-15 06:35:00
11:55 PM,14.0,12.2,93,30.22,-9999.0,SE,6.9,-,N/A,,Overcast,130,2013-02-15 06:55:00